Weather History for KPBI - August, 2014

Change the Weather History Date:

Monday, August 18, 2014

  Actual Average Record
Temperature  
Mean Temperature 84 °F 83 °F  
Max Temperature 91 °F 90 °F 96 °F (1949)
Min Temperature 76 °F 76 °F 69 °F (1921)
Degree Days  
Heating Degree Days 0 0  
Month to date heating degree days 0 0  
Since 1 June heating degree days 0 0  
Since 1 July heating degree days 0 0  
Cooling Degree Days 19 18  
Month to date cooling degree days 340 324  
Year to date cooling degree days 2744 2472  
Since 1 June cooling degree days 1392 1363  
Growing Degree Days 33 (Base 50)    
Moisture  
Dew Point 75 °F    
Average Humidity 74    
Maximum Humidity 91    
Minimum Humidity 56    
Precipitation  
Precipitation 0.00 in 0.25 in 3.73 in (1981)
Month to date precipitation 9.37 4.42  
Year to date precipitation 42.80 37.19  
Snow  
Snow 0.00 in - - ()
Month to date snowfall 0.0  
Since 1 June snowfall 0.0  
Since 1 July snowfall 0.0  
Snow Depth 0.00 in    
Sea Level Pressure  
Sea Level Pressure 30.03 in    
Wind  
Wind Speed 5 mph (SE)    
Max Wind Speed 15 mph    
Max Gust Speed 18 mph    
Visibility 10 miles    
Events      
T = Trace of Precipitation, MM = Missing Value Source: NWS Daily Summary

Daily Weather History Graph

Daily Weather History Graph

Search for Another Location

Airport or City:

Trip Planner

Search our weather history database for the weather conditions in past years. The results will help you decide how hot, cold, wet, or windy it might be!

Date:

Astronomy

Aug. 18, 2014 Rise Set
Actual Time 6:53 AM EDT 7:54 PM EDT
Civil Twilight 6:29 AM EDT 8:18 PM EDT
Nautical Twilight 6:01 AM EDT 8:46 PM EDT
Astronomical Twilight 5:31 AM EDT 9:16 PM EDT
Moon 1:06 AM EDT (8/18) 2:47 PM EDT (8/18)
Length of Visible Light 13h 48m
Length of Day
13h 00m
Last Quarter, 38% of the Moon is Illuminated
Aug 18
Last Quarter
Aug 25
New
Sep 2
First Quarter
Sep 8
Full
Sep 15
Last Quarter

Hourly Weather History & Observations

Time (EDT) Temp. Heat Index Dew Point Humidity Pressure Visibility Wind Dir Wind Speed Gust Speed Precip Events Conditions
12:53 AM 81.0 °F 86.7 °F 75.0 °F 82% 30.08 in 10.0 mi Calm Calm - N/A   Scattered Clouds
1:53 AM 80.1 °F 85.1 °F 75.0 °F 85% 30.06 in 10.0 mi Calm Calm - N/A   Partly Cloudy
2:53 AM 79.0 °F - 75.0 °F 88% 30.04 in 10.0 mi Calm Calm - N/A   Partly Cloudy
3:53 AM 78.1 °F - 75.0 °F 90% 30.03 in 10.0 mi Calm Calm - N/A   Partly Cloudy
4:53 AM 79.0 °F - 75.0 °F 88% 30.02 in 10.0 mi Calm Calm - N/A   Partly Cloudy
5:53 AM 77.0 °F - 73.9 °F 90% 30.04 in 10.0 mi Calm Calm - N/A   Partly Cloudy
6:53 AM 78.1 °F - 75.0 °F 90% 30.04 in 10.0 mi Calm Calm - N/A   Partly Cloudy
7:53 AM 79.0 °F - 75.9 °F 90% 30.05 in 10.0 mi NW 3.5 mph - N/A   Partly Cloudy
8:53 AM 82.9 °F 91.8 °F 77.0 °F 82% 30.05 in 10.0 mi Calm Calm - N/A   Partly Cloudy
9:53 AM 86.0 °F 96.0 °F 75.9 °F 72% 30.06 in 10.0 mi SSW 3.5 mph - N/A   Scattered Clouds
10:53 AM 88.0 °F 96.5 °F 73.9 °F 63% 30.07 in 10.0 mi Variable 3.5 mph - N/A   Scattered Clouds
11:53 AM 89.1 °F 98.0 °F 73.9 °F 61% 30.06 in 10.0 mi SSE 4.6 mph - N/A   Scattered Clouds
12:53 PM 90.0 °F 99.0 °F 73.9 °F 59% 30.05 in 10.0 mi ESE 6.9 mph - N/A   Scattered Clouds
1:53 PM 90.0 °F 99.0 °F 73.9 °F 59% 30.02 in 10.0 mi ESE 11.5 mph - N/A   Scattered Clouds
2:53 PM 91.0 °F 100.4 °F 73.9 °F 57% 30.00 in 10.0 mi East 10.4 mph - N/A   Scattered Clouds
3:53 PM 90.0 °F 99.0 °F 73.9 °F 59% 29.99 in 10.0 mi ESE 9.2 mph - N/A   Partly Cloudy
4:53 PM 90.0 °F 99.0 °F 73.9 °F 59% 29.98 in 10.0 mi ESE 11.5 mph - N/A   Partly Cloudy
5:53 PM 89.1 °F 99.1 °F 75.0 °F 63% 29.99 in 10.0 mi ESE 10.4 mph - N/A   Partly Cloudy
6:53 PM 87.1 °F 97.3 °F 75.9 °F 69% 29.99 in 10.0 mi SE 12.7 mph - N/A   Partly Cloudy
7:53 PM 86.0 °F 96.0 °F 75.9 °F 72% 29.99 in 10.0 mi SE 10.4 mph - N/A   Scattered Clouds
8:53 PM 84.9 °F 94.1 °F 75.9 °F 74% 29.99 in 10.0 mi SSE 6.9 mph - N/A   Scattered Clouds
9:53 PM 84.9 °F 94.1 °F 75.9 °F 74% 29.99 in 10.0 mi South 5.8 mph - N/A   Partly Cloudy
10:53 PM 84.0 °F 92.6 °F 75.9 °F 76% 30.00 in 10.0 mi SSE 6.9 mph - N/A   Partly Cloudy
11:53 PM 84.0 °F 92.6 °F 75.9 °F 76% 30.01 in 10.0 mi South 6.9 mph - N/A   Partly Cloudy